Back to catalog

MIDAS 3

AliveMilitaryPO
NORAD 163·PAYLOAD·🇺🇸 United States

Launched Jul 12, 1961 from Vandenberg Space Force Base

Loading…

Next Passes (next 24 hours)

TLE

FreshSource: Space-Track

Epoch: Sep 5, 2026, 09:30 UTC

1 00163U 61018A   26248.39640582  .00000009  00000-0  26156-2 0  9996
2 00163  91.1259 208.7021 0102891  67.7648 293.4102  8.91839497121168

Track MIDAS 3 in real time with AllMySat

Download on the App Store